Home   Weather   Cozumel   Past weeks

Flag for Mexico Past Weather in Cozumel, Quintana Roo, Mexico — Yesterday and Last 2 Weeks

Now
75 °F

Partly cloudy.


Feels Like: 74 °F
Forecast: 74 / 82 °F
Wind: No wind

Location: Cozumel Civ / Mil

Current Time: Nov 18, 2017 at 8:25:58 pm

Latest Report: Nov 18, 2017 at 7:42 pm


Visibility: 7 mi

Pressure: 29.91 "Hg

Humidity: 94%

Dew Point: 73 °F

Location of CozumelLocation

Past Weather in Cozumel — Graph

°F

Cozumel Temperature Yesterday

Maximum temperature yesterday: 82 °F (at 12:44 pm)
Minimum temperature yesterday: 68 °F (at 10:42 pm)
Average temperature yesterday: 77 °F

High & Low Weather Summary for the Past Weeks

 TemperatureHumidityPressure
High86 °F (Nov 9, 2:40 pm)100% (Nov 8, 6:42 am)30.04 "Hg (Nov 8, 6:42 am)
Low68 °F (Nov 8, 3:44 am)55% (Nov 4, 1:40 pm)29.84 "Hg (Nov 14, 4:40 pm)
Average78 °F81%29.94 "Hg
* Reported Nov 3 6:47 pm — Nov 18 6:41 pm, Cozumel. Weather by CustomWeather, © 2017

Note: Actual official high and low records may vary slightly from our data, if they occured in-between our weather recording intervals... More about our weather records

Advertising

Cozumel Weather History for the Previous 24 Hours

Scroll right to see more
 ConditionsComfort  
Time TempWeatherWind HumidityBarometerVisibility
6:41 pm
Sat, Nov 18
77 °FBroken clouds.No wind89%29.90 "Hg7 mi
5:49 pm79 °FCloudy.No wind79%29.88 "Hg8 mi
4:43 pm79 °FCloudy.3 mph79%29.87 "Hg8 mi
3:41 pm79 °FBroken clouds.7 mph79%29.89 "Hg8 mi
2:40 pm81 °FBroken clouds.9 mph70%29.88 "Hg8 mi
1:40 pm79 °FCloudy.6 mph74%29.90 "Hg8 mi
12:44 pm79 °FBroken clouds.9 mph74%29.95 "Hg8 mi
11:40 am79 °FBroken clouds.8 mph79%29.96 "Hg8 mi
10:44 am79 °FBroken clouds.10 mph84%29.97 "Hg8 mi
9:40 am81 °FPassing clouds.7 mph74%29.98 "Hg8 mi
8:41 am79 °FSunny.12 mph79%29.95 "Hg8 mi
7:40 am75 °FClear.No wind83%29.91 "Hg7 mi
6:41 am75 °FClear.7 mph83%29.94 "Hg7 mi
5:40 am75 °FClear.No wind78%29.91 "Hg7 mi
4:40 am70 °FClear.No wind94%29.92 "Hg7 mi
3:40 am70 °FClear.No wind94%29.93 "Hg7 mi
2:40 am68 °FClear.5 mph94%29.93 "Hg7 mi
1:40 am70 °FPassing clouds.No wind94%29.95 "Hg7 mi
12:40 am70 °FClear.No wind94%29.98 "Hg7 mi
11:40 pm
Fri, Nov 17
68 °FPassing clouds.No wind88%29.98 "Hg7 mi
10:42 pm68 °FPassing clouds.No wind94%29.99 "Hg7 mi
9:46 pm73 °FPassing clouds.No wind78%30.01 "Hg7 mi
8:41 pm73 °FPassing clouds.3 mph78%29.98 "Hg7 mi
Weather by CustomWeather, © 2017

See weather overview